Oak Harbor, WA

6:01 PM PDT on September 24, 2016 (GMT -0700)
Whidbey Island Naval Air Station

Weather History for KNUW - March, 2013

Change the Weather History Date:

Friday, March 15, 2013

  Actual Average Record
Temperature  
Mean Temperature 52 °F -  
Max Temperature 59 °F 49 °F 59 °F (2013)
Min Temperature 46 °F 37 °F 33 °F (1997)
Degree Days  
Heating Degree Days 14    
Growing Degree Days 2 (Base 50)    
Moisture  
Dew Point 46 °F    
Average Humidity 84    
Maximum Humidity 93    
Minimum Humidity 67    
Precipitation  
Precipitation 0.00 in - - ()
Sea Level Pressure  
Sea Level Pressure 30.17 in    
Wind  
Wind Speed 6 mph (SSE)    
Max Wind Speed 13 mph    
Max Gust Speed 21 mph    
Visibility 10 miles    
Events Rain    
Averages and records for this station are not official NWS values.
T = Trace of Precipitation, MM = Missing Value Source: NWS Daily Summary

Daily Weather History Graph

Daily Weather History Graph

Search for Another Location

Airport or City:

Trip Planner

Search our weather history database for the weather conditions in past years. The results will help you decide how hot, cold, wet, or windy it might be!

Date:

Astronomy

Mar. 15, 2013 Rise Set
Actual Time 7:23 AM PDT 7:16 PM PDT
Civil Twilight 6:51 AM PDT 7:47 PM PDT
Nautical Twilight 6:15 AM PDT 8:24 PM PDT
Astronomical Twilight 5:38 AM PDT 9:01 PM PDT
Moon 8:55 AM PDT (3/15) 11:59 PM PDT (3/15)
Length of Visible Light 12h 55m
Length of Day
11h 53m
Waxing Crescent, 16% of the Moon is Illuminated
Mar 15
Waxing Crescent
Mar 19
First Quarter
Mar 27
Full
Apr 2
Last Quarter
Apr 10
New

Hourly Weather History & Observations

Time (PDT) Temp. Dew Point Humidity Pressure Visibility Wind Dir Wind Speed Gust Speed Precip Events Conditions
12:56 AM 48.9 °F 45.0 °F 86% 30.16 in 10.0 mi ESE 8.1 mph - N/A   Mostly Cloudy
1:56 AM 48.9 °F 45.0 °F 86% 30.17 in 10.0 mi ESE 8.1 mph - N/A   Mostly Cloudy
2:56 AM 48.9 °F 45.0 °F 86% 30.18 in 10.0 mi ESE 8.1 mph - N/A   Overcast
3:56 AM 48.0 °F 45.0 °F 89% 30.18 in 10.0 mi East 6.9 mph - N/A   Overcast
4:56 AM 48.9 °F 46.0 °F 90% 30.17 in 10.0 mi ESE 8.1 mph - N/A   Overcast
5:56 AM 48.9 °F 46.0 °F 90% 30.17 in 10.0 mi ESE 8.1 mph - N/A   Overcast
6:56 AM 48.9 °F 46.0 °F 90% 30.18 in 8.0 mi Calm Calm - N/A   Overcast
7:18 AM 48.2 °F 46.4 °F 93% 30.17 in 10.0 mi Calm Calm - N/A   Overcast
7:56 AM 48.9 °F 46.0 °F 90% 30.19 in 8.0 mi Calm Calm - N/A   Overcast
8:34 AM 46.4 °F 44.6 °F 93% 30.18 in 10.0 mi Calm Calm - N/A   Overcast
8:56 AM 48.0 °F 46.0 °F 93% 30.20 in 9.0 mi Calm Calm - N/A   Overcast
9:56 AM 48.0 °F 45.0 °F 89% 30.21 in 9.0 mi Calm Calm - N/A   Overcast
10:03 AM 48.2 °F 44.6 °F 87% 30.20 in 10.0 mi Calm Calm - N/A   Overcast
10:56 AM 50.0 °F 46.0 °F 86% 30.22 in 10.0 mi SSE 8.1 mph - N/A   Overcast
11:56 AM 54.0 °F 46.0 °F 75% 30.21 in 10.0 mi SSE 10.4 mph - N/A   Overcast
12:05 PM 53.6 °F 46.4 °F 77% 30.20 in 10.0 mi SSE 12.7 mph 20.7 mph N/A   Mostly Cloudy
12:32 PM 53.6 °F 44.6 °F 72% 30.20 in 10.0 mi SE 12.7 mph - N/A   Mostly Cloudy
12:56 PM 55.9 °F 45.0 °F 67% 30.21 in 10.0 mi SE 12.7 mph - N/A   Overcast
1:56 PM 55.9 °F 46.0 °F 69% 30.20 in 10.0 mi SE 5.8 mph - N/A   Overcast
2:56 PM 52.0 °F 46.0 °F 80% 30.18 in 10.0 mi West 4.6 mph - N/A   Overcast
3:56 PM 57.9 °F 46.9 °F 67% 30.17 in 10.0 mi SSE 9.2 mph - N/A   Mostly Cloudy
4:56 PM 55.9 °F 48.0 °F 75% 30.15 in 10.0 mi SE 8.1 mph - 0.00 in Rain Light Rain
5:11 PM 57.2 °F 46.4 °F 67% 30.13 in 10.0 mi SE 8.1 mph - 0.00 in   Overcast
5:56 PM 55.9 °F 46.9 °F 72% 30.15 in 10.0 mi SSE 5.8 mph - 0.00 in   Overcast
6:48 PM 48.2 °F 44.6 °F 87% 30.15 in 10.0 mi WNW 9.2 mph - 0.00 in Rain Light Rain
6:56 PM 48.0 °F 45.0 °F 89% 30.15 in 10.0 mi WNW 11.5 mph - 0.00 in Rain Light Rain
7:29 PM 48.2 °F 46.4 °F 93% 30.14 in 10.0 mi North 5.8 mph - 0.00 in   Overcast
7:56 PM 48.0 °F 46.0 °F 93% 30.15 in 9.0 mi SW 3.5 mph - 0.00 in   Overcast
8:56 PM 46.9 °F 45.0 °F 93% 30.16 in 10.0 mi SSW 4.6 mph - N/A   Overcast
9:56 PM 46.9 °F 45.0 °F 93% 30.15 in 10.0 mi SSW 4.6 mph - N/A   Overcast
10:56 PM 46.9 °F 45.0 °F 93% 30.15 in 10.0 mi SW 9.2 mph - N/A   Overcast
11:56 PM 46.9 °F 45.0 °F 93% 30.15 in 10.0 mi SSW 9.2 mph - N/A   Overcast